When you browse on this site, cookies collect data to enhance your experience and personalize the content and advertising you see.
Visit our Privacy Policy to learn more. By continuing to use the site, you agree to this use of cookies and data.
  • In Czech Republic
  • List of Countries
  • For 7 days
  • Water Temperature
  • Satellite Maps
  • Weather Map
  • Weather Widgets
  • user-avatar
    Login

    Hourly Weather Hotovizh

    Today, 20 May, Monday

    Time Temperature Precipitation Wind Pressure Humidity
    00:00 +14°C° 0 mm 3 mps 750 mmHg 80%
    01:00 +13°C° 0 mm 3 mps 750 mmHg 82%
    02:00 +13°C° 0 mm 3 mps 750 mmHg 85%
    03:00 +13°C° 0 mm 3 mps 750 mmHg 85%
    04:00 +13°C° 0 mm 3 mps 751 mmHg 86%
    05:00 +13°C° 0 mm 3 mps 751 mmHg 86%
    06:00 +16°C° 0 mm 3 mps 751 mmHg 80%
    07:00 +18°C° 0 mm 4 mps 751 mmHg 74%
    08:00 +20°C° 0 mm 4 mps 751 mmHg 68%
    09:00 +21°C° 0 mm 4 mps 751 mmHg 63%
    10:00 +22°C° 0 mm 5 mps 751 mmHg 58%
    11:00 +23°C° 0 mm 5 mps 751 mmHg 53%
    12:00 +23°C° 0 mm 5 mps 751 mmHg 52%
    13:00 +23°C° 0 mm 5 mps 751 mmHg 51%
    14:00 +25°C° 0 mm 5 mps 751 mmHg 49%
    15:00 +25°C° 0 mm 4 mps 750 mmHg 53%
    16:00 +23°C° 0 mm 4 mps 750 mmHg 57%
    17:00 +24°C° 0 mm 3 mps 750 mmHg 61%
    18:00 +21°C° 0 mm 3 mps 750 mmHg 66%
    19:00 +19°C° 0 mm 3 mps 750 mmHg 71%
    20:00 +17°C° 0 mm 3 mps 750 mmHg 76%
    21:00 +17°C° 0 mm 3 mps 750 mmHg 78%
    22:00 +16°C° 0 mm 3 mps 750 mmHg 80%
    23:00 +14°C° 0 mm 3 mps 750 mmHg 81%

    Tomorrow, 21 May, Tuesday

    Time Temperature Precipitation Wind Pressure Humidity
    00:00 +14°C° 0 mm 4 mps 750 mmHg 82%
    01:00 +14°C° 0 mm 4 mps 750 mmHg 82%
    02:00 +13°C° 0 mm 4 mps 750 mmHg 83%
    03:00 +13°C° 0 mm 4 mps 750 mmHg 82%
    04:00 +13°C° 0 mm 4 mps 750 mmHg 82%
    05:00 +13°C° 0 mm 4 mps 750 mmHg 81%
    06:00 +14°C° 0 mm 5 mps 750 mmHg 75%
    07:00 +16°C° 0 mm 5 mps 750 mmHg 68%
    08:00 +17°C° 0 mm 6 mps 750 mmHg 62%
    09:00 +19°C° 0 mm 6 mps 750 mmHg 60%
    10:00 +21°C° 0 mm 6 mps 750 mmHg 59%
    11:00 +22°C° 0 mm 6 mps 750 mmHg 57%
    12:00 +22°C° 0 mm 6 mps 749 mmHg 57%
    13:00 +23°C° 0 mm 6 mps 749 mmHg 56%
    14:00 +23°C° 0 mm 6 mps 748 mmHg 55%
    15:00 +23°C° 0 mm 5 mps 748 mmHg 58%
    16:00 +23°C° 0 mm 5 mps 748 mmHg 61%
    17:00 +22°C° 0 mm 4 mps 747 mmHg 63%
    18:00 +21°C° 0 mm 4 mps 747 mmHg 68%
    19:00 +19°C° 0 mm 4 mps 747 mmHg 74%
    20:00 +17°C° 0 mm 3 mps 747 mmHg 79%
    21:00 +17°C° 0 mm 3 mps 747 mmHg 83%
    22:00 +16°C° 0 mm 3 mps 747 mmHg 86%
    23:00 +14°C° 0 mm 3 mps 747 mmHg 90%

    Day after tomorrow, 22 May, Wednesday

    Time Temperature Precipitation Wind Pressure Humidity
    00:00 +14°C° 0 mm 3 mps 746 mmHg 91%
    01:00 +14°C° 0 mm 3 mps 746 mmHg 92%
    02:00 +13°C° 0 mm 3 mps 746 mmHg 93%
    03:00 +13°C° 0 mm 3 mps 746 mmHg 93%
    04:00 +13°C° 0 mm 3 mps 745 mmHg 93%
    05:00 +13°C° 0 mm 3 mps 745 mmHg 92%
    06:00 +16°C° 0 mm 3 mps 745 mmHg 88%
    07:00 +17°C° 0 mm 3 mps 745 mmHg 85%
    08:00 +19°C° 0 mm 3 mps 745 mmHg 81%
    09:00 +20°C° 0 mm 3 mps 745 mmHg 78%
    10:00 +21°C° 0 mm 3 mps 745 mmHg 75%
    11:00 +22°C° 0 mm 3 mps 744 mmHg 71%
    12:00 +24°C° 0.2 mm 3 mps 744 mmHg 68%
    13:00 +24°C° 0.2 mm 3 mps 744 mmHg 65%
    14:00 +25°C° 0.2 mm 3 mps 744 mmHg 61%
    15:00 +25°C° 0.3 mm 2 mps 743 mmHg 62%
    16:00 +25°C° 0.3 mm 2 mps 743 mmHg 63%
    17:00 +25°C° 0.3 mm 1 mps 743 mmHg 64%
    18:00 +23°C° 0.4 mm 1 mps 743 mmHg 71%
    19:00 +21°C° 0.4 mm 1 mps 743 mmHg 77%
    20:00 +19°C° 0.4 mm 1 mps 743 mmHg 83%
    21:00 +19°C° 0 mm 1 mps 743 mmHg 85%
    22:00 +18°C° 0 mm 1 mps 743 mmHg 87%
    23:00 +16°C° 0 mm 2 mps 743 mmHg 89%

    23 May, Thursday

    Time Temperature Precipitation Wind Pressure Humidity
    00:00 +16°C° 0.1 mm 2 mps 743 mmHg 90%
    01:00 +16°C° 0.1 mm 1 mps 743 mmHg 91%
    02:00 +15°C° 0.1 mm 1 mps 742 mmHg 91%
    03:00 +15°C° 0 mm 1 mps 742 mmHg 91%
    04:00 +15°C° 0 mm 1 mps 742 mmHg 91%
    05:00 +15°C° 0 mm 1 mps 743 mmHg 90%
    06:00 +18°C° 0 mm 1 mps 743 mmHg 85%
    07:00 +20°C° 0 mm 1 mps 743 mmHg 80%
    08:00 +22°C° 0 mm 1 mps 743 mmHg 74%
    09:00 +23°C° 0 mm 1 mps 742 mmHg 68%
    10:00 +24°C° 0 mm 2 mps 742 mmHg 62%
    11:00 +25°C° 0 mm 2 mps 742 mmHg 56%
    12:00 +26°C° 0 mm 2 mps 742 mmHg 54%
    13:00 +26°C° 0 mm 2 mps 742 mmHg 52%
    14:00 +27°C° 0 mm 2 mps 741 mmHg 51%
    15:00 +27°C° 0 mm 2 mps 741 mmHg 54%
    16:00 +26°C° 0 mm 2 mps 741 mmHg 57%
    17:00 +26°C° 0 mm 2 mps 741 mmHg 60%
    18:00 +24°C° 0.6 mm 2 mps 741 mmHg 66%
    19:00 +21°C° 0.6 mm 2 mps 741 mmHg 72%
    20:00 +20°C° 0.6 mm 1 mps 741 mmHg 78%
    21:00 +19°C° 0 mm 1 mps 741 mmHg 80%
    22:00 +19°C° 0 mm 1 mps 741 mmHg 81%
    23:00 +18°C° 0 mm 1 mps 742 mmHg 83%

    24 May, Friday

    Time Temperature Precipitation Wind Pressure Humidity
    00:00 +18°C° 0.4 mm 1 mps 741 mmHg 85%
    01:00 +16°C° 0.4 mm 1 mps 741 mmHg 88%
    02:00 +16°C° 0.4 mm 1 mps 741 mmHg 90%
    03:00 +16°C° 0.3 mm 1 mps 741 mmHg 90%
    04:00 +15°C° 0.3 mm 0 mps 741 mmHg 90%
    05:00 +16°C° 0.3 mm 0 mps 741 mmHg 90%
    06:00 +16°C° 0.1 mm 0 mps 741 mmHg 87%
    07:00 +19°C° 0.1 mm 1 mps 741 mmHg 85%
    08:00 +20°C° 0.1 mm 1 mps 741 mmHg 83%
    09:00 +22°C° 0 mm 1 mps 741 mmHg 74%
    10:00 +23°C° 0 mm 1 mps 741 mmHg 65%
    11:00 +24°C° 0 mm 1 mps 741 mmHg 57%
    12:00 +25°C° 0 mm 1 mps 741 mmHg 54%
    13:00 +25°C° 0 mm 1 mps 741 mmHg 52%
    14:00 +26°C° 0 mm 1 mps 740 mmHg 50%
    15:00 +25°C° 1 mm 2 mps 740 mmHg 58%
    16:00 +25°C° 1 mm 2 mps 740 mmHg 65%
    17:00 +24°C° 1 mm 2 mps 740 mmHg 72%
    18:00 +21°C° 0.3 mm 2 mps 740 mmHg 77%
    19:00 +20°C° 0.3 mm 2 mps 740 mmHg 81%
    20:00 +18°C° 0.3 mm 2 mps 740 mmHg 86%
    21:00 +18°C° 0.1 mm 2 mps 740 mmHg 87%
    22:00 +17°C° 0.1 mm 2 mps 740 mmHg 89%
    23:00 +17°C° 0.1 mm 2 mps 739 mmHg 90%

    25 May, Saturday

    Time Temperature Precipitation Wind Pressure Humidity
    00:00 +17°C° 0 mm 2 mps 739 mmHg 90%
    01:00 +16°C° 0 mm 1 mps 739 mmHg 91%
    02:00 +16°C° 0 mm 1 mps 739 mmHg 91%
    03:00 +16°C° 0 mm 1 mps 739 mmHg 92%
    04:00 +16°C° 0 mm 1 mps 739 mmHg 93%
    05:00 +16°C° 0 mm 1 mps 739 mmHg 93%
    06:00 +18°C° 0.5 mm 1 mps 739 mmHg 89%
    07:00 +20°C° 0.5 mm 1 mps 739 mmHg 84%
    08:00 +21°C° 0.5 mm 1 mps 740 mmHg 80%
    09:00 +22°C° 1.4 mm 1 mps 739 mmHg 74%
    10:00 +23°C° 1.4 mm 1 mps 739 mmHg 68%
    11:00 +25°C° 1.4 mm 1 mps 739 mmHg 61%
    12:00 +25°C° 0.6 mm 1 mps 739 mmHg 61%
    13:00 +25°C° 0.6 mm 1 mps 739 mmHg 60%
    14:00 +26°C° 0.6 mm 2 mps 739 mmHg 59%
    15:00 +25°C° 1.5 mm 2 mps 739 mmHg 65%
    16:00 +24°C° 1.5 mm 2 mps 739 mmHg 72%
    17:00 +23°C° 1.5 mm 2 mps 739 mmHg 78%
    18:00 +20°C° 0.2 mm 2 mps 738 mmHg 82%
    19:00 +19°C° 0.2 mm 2 mps 738 mmHg 86%
    20:00 +18°C° 0.2 mm 2 mps 738 mmHg 89%
    21:00 +17°C° 0.3 mm 2 mps 738 mmHg 91%
    22:00 +17°C° 0.3 mm 2 mps 738 mmHg 94%
    23:00 +16°C° 0.3 mm 3 mps 738 mmHg 96%
    Show more